Stündliche Wetter Bolshie Kibyachi

Heute, 21 April, Mittwoch

Zeit Temperatur Niederschläge Wind Luftdruck Luftfeuchtigkeit
00:00 0°C° 0 mm 4 m/S 760 mmHg 55%
01:00 0°C° 0 mm 4 m/S 760 mmHg 54%
02:00 0°C° 0 mm 5 m/S 760 mmHg 54%
03:00 0°C° 0 mm 5 m/S 760 mmHg 53%
04:00 -1°C° 0 mm 6 m/S 760 mmHg 52%
05:00 +1°C° 0 mm 6 m/S 759 mmHg 50%
06:00 0°C° 0 mm 7 m/S 759 mmHg 49%
07:00 +2°C° 0 mm 7 m/S 759 mmHg 46%
08:00 +2°C° 0 mm 8 m/S 759 mmHg 43%
09:00 +4°C° 0 mm 8 m/S 758 mmHg 41%
10:00 +4°C° 0.1 mm 8 m/S 758 mmHg 40%
11:00 +5°C° 0.1 mm 8 m/S 758 mmHg 40%
12:00 +5°C° 0.1 mm 8 m/S 758 mmHg 40%
13:00 +4°C° 0.2 mm 8 m/S 758 mmHg 45%
14:00 +3°C° 0.2 mm 7 m/S 757 mmHg 50%
15:00 +3°C° 0.2 mm 7 m/S 757 mmHg 54%
16:00 +2°C° 1.3 mm 7 m/S 757 mmHg 67%
17:00 0°C° 1.3 mm 7 m/S 757 mmHg 81%
18:00 -1°C° 1.3 mm 7 m/S 757 mmHg 94%
19:00 -1°C° 1.8 mm 7 m/S 757 mmHg 95%
20:00 -2°C° 1.8 mm 7 m/S 757 mmHg 96%
21:00 -2°C° 1.8 mm 7 m/S 756 mmHg 98%
22:00 -1°C° 0.7 mm 7 m/S 756 mmHg 98%
23:00 -1°C° 0.7 mm 7 m/S 756 mmHg 98%

Morgen, 22 April, Donnerstag

Zeit Temperatur Niederschläge Wind Luftdruck Luftfeuchtigkeit
00:00 -1°C° 0.7 mm 7 m/S 756 mmHg 98%
01:00 -1°C° 0.3 mm 7 m/S 756 mmHg 98%
02:00 -1°C° 0.3 mm 7 m/S 756 mmHg 97%
03:00 -1°C° 0.3 mm 7 m/S 756 mmHg 97%
04:00 +1°C° 0 mm 6 m/S 756 mmHg 97%
05:00 +1°C° 0 mm 6 m/S 756 mmHg 97%
06:00 +1°C° 0 mm 5 m/S 757 mmHg 97%
07:00 +1°C° 0 mm 5 m/S 757 mmHg 97%
08:00 +2°C° 0 mm 5 m/S 757 mmHg 97%
09:00 +2°C° 0 mm 5 m/S 757 mmHg 96%
10:00 +2°C° 0 mm 5 m/S 757 mmHg 95%
11:00 +3°C° 0 mm 5 m/S 758 mmHg 93%
12:00 +3°C° 0 mm 5 m/S 758 mmHg 91%
13:00 +5°C° 0 mm 5 m/S 758 mmHg 90%
14:00 +5°C° 0 mm 5 m/S 758 mmHg 89%
15:00 +6°C° 0 mm 5 m/S 758 mmHg 88%
16:00 +5°C° 0 mm 5 m/S 758 mmHg 88%
17:00 +5°C° 0 mm 5 m/S 758 mmHg 89%
18:00 +4°C° 0 mm 6 m/S 758 mmHg 89%
19:00 +3°C° 0 mm 5 m/S 758 mmHg 91%
20:00 +3°C° 0 mm 5 m/S 758 mmHg 93%
21:00 +2°C° 0 mm 5 m/S 758 mmHg 95%
22:00 +2°C° 0 mm 5 m/S 758 mmHg 95%
23:00 +1°C° 0 mm 4 m/S 758 mmHg 96%

übermorgen, 23 April, Freitag

Zeit Temperatur Niederschläge Wind Luftdruck Luftfeuchtigkeit
00:00 +1°C° 0 mm 4 m/S 758 mmHg 96%
01:00 +1°C° 0 mm 4 m/S 758 mmHg 96%
02:00 +1°C° 0 mm 4 m/S 758 mmHg 96%
03:00 +2°C° 0 mm 3 m/S 758 mmHg 96%
04:00 +2°C° 0 mm 3 m/S 758 mmHg 95%
05:00 +2°C° 0 mm 3 m/S 758 mmHg 94%
06:00 +3°C° 0 mm 3 m/S 759 mmHg 93%
07:00 +3°C° 0 mm 4 m/S 759 mmHg 92%
08:00 +4°C° 0 mm 4 m/S 759 mmHg 91%
09:00 +4°C° 0 mm 4 m/S 759 mmHg 90%
10:00 +5°C° 0 mm 4 m/S 759 mmHg 86%
11:00 +7°C° 0 mm 4 m/S 759 mmHg 81%
12:00 +8°C° 0 mm 4 m/S 759 mmHg 77%
13:00 +10°C° 0 mm 3 m/S 759 mmHg 74%
14:00 +10°C° 0 mm 3 m/S 759 mmHg 71%
15:00 +11°C° 0 mm 3 m/S 759 mmHg 69%
16:00 +10°C° 0 mm 3 m/S 758 mmHg 71%
17:00 +10°C° 0 mm 2 m/S 758 mmHg 73%
18:00 +9°C° 0 mm 2 m/S 758 mmHg 75%
19:00 +9°C° 0 mm 2 m/S 758 mmHg 77%
20:00 +8°C° 0 mm 2 m/S 758 mmHg 78%
21:00 +8°C° 0 mm 2 m/S 757 mmHg 80%
22:00 +7°C° 0 mm 2 m/S 757 mmHg 84%
23:00 +5°C° 0 mm 3 m/S 757 mmHg 88%

24 April, Samstag

Zeit Temperatur Niederschläge Wind Luftdruck Luftfeuchtigkeit
00:00 +4°C° 0 mm 3 m/S 757 mmHg 91%
01:00 +4°C° 0 mm 3 m/S 756 mmHg 92%
02:00 +4°C° 0 mm 3 m/S 756 mmHg 93%
03:00 +3°C° 0 mm 4 m/S 755 mmHg 93%
04:00 +3°C° 0 mm 4 m/S 755 mmHg 93%
05:00 +4°C° 0 mm 4 m/S 754 mmHg 92%
06:00 +4°C° 0 mm 4 m/S 754 mmHg 91%
07:00 +4°C° 0 mm 4 m/S 753 mmHg 90%
08:00 +5°C° 0 mm 4 m/S 753 mmHg 89%
09:00 +5°C° 0 mm 5 m/S 752 mmHg 88%
10:00 +5°C° 0.1 mm 4 m/S 752 mmHg 90%
11:00 +5°C° 0.1 mm 4 m/S 752 mmHg 92%
12:00 +5°C° 0.1 mm 3 m/S 751 mmHg 94%
13:00 +5°C° 0.2 mm 3 m/S 751 mmHg 94%
14:00 +5°C° 0.2 mm 3 m/S 751 mmHg 95%
15:00 +5°C° 0.2 mm 3 m/S 750 mmHg 95%
16:00 +6°C° 0.1 mm 2 m/S 750 mmHg 96%
17:00 +6°C° 0.1 mm 2 m/S 750 mmHg 96%
18:00 +6°C° 0.1 mm 2 m/S 749 mmHg 97%
19:00 +5°C° 0 mm 2 m/S 749 mmHg 97%
20:00 +5°C° 0 mm 2 m/S 749 mmHg 97%
21:00 +6°C° 0 mm 1 m/S 748 mmHg 98%
22:00 +6°C° 0 mm 1 m/S 748 mmHg 98%
23:00 +6°C° 0 mm 1 m/S 748 mmHg 98%

25 April, Sonntag

Zeit Temperatur Niederschläge Wind Luftdruck Luftfeuchtigkeit
00:00 +6°C° 0 mm 1 m/S 747 mmHg 98%
01:00 +6°C° 0 mm 1 m/S 747 mmHg 98%
02:00 +6°C° 0 mm 1 m/S 747 mmHg 98%
03:00 +5°C° 0 mm 2 m/S 747 mmHg 98%
04:00 +5°C° 0 mm 2 m/S 746 mmHg 96%
05:00 +6°C° 0 mm 2 m/S 746 mmHg 94%
06:00 +5°C° 0 mm 3 m/S 745 mmHg 93%
07:00 +5°C° 0.5 mm 3 m/S 745 mmHg 93%
08:00 +5°C° 0.5 mm 3 m/S 745 mmHg 93%
09:00 +5°C° 0.5 mm 3 m/S 744 mmHg 93%
10:00 +3°C° 0.9 mm 5 m/S 745 mmHg 92%
11:00 +3°C° 0.9 mm 6 m/S 746 mmHg 91%
12:00 +2°C° 0.9 mm 8 m/S 747 mmHg 91%
13:00 +4°C° 0.2 mm 8 m/S 747 mmHg 80%
14:00 +6°C° 0.2 mm 7 m/S 748 mmHg 70%
15:00 +9°C° 0.2 mm 7 m/S 748 mmHg 60%
16:00 +8°C° 0.3 mm 6 m/S 748 mmHg 61%
17:00 +8°C° 0.3 mm 6 m/S 748 mmHg 63%
18:00 +7°C° 0.3 mm 5 m/S 749 mmHg 65%
19:00 +6°C° 0 mm 4 m/S 749 mmHg 70%
20:00 +5°C° 0 mm 4 m/S 750 mmHg 75%
21:00 +3°C° 0 mm 3 m/S 750 mmHg 80%
22:00 +3°C° 0 mm 3 m/S 750 mmHg 81%
23:00 +3°C° 0 mm 3 m/S 750 mmHg 82%

26 April, Montag

Zeit Temperatur Niederschläge Wind Luftdruck Luftfeuchtigkeit
00:00 +2°C° 0 mm 3 m/S 751 mmHg 82%
01:00 +2°C° 0 mm 3 m/S 751 mmHg 83%
02:00 +2°C° 0 mm 3 m/S 751 mmHg 84%
03:00 +1°C° 0 mm 3 m/S 751 mmHg 85%
04:00 +2°C° 0 mm 3 m/S 752 mmHg 83%
05:00 +3°C° 0 mm 2 m/S 752 mmHg 82%
06:00 +4°C° 0 mm 2 m/S 752 mmHg 80%
07:00 +5°C° 0 mm 2 m/S 752 mmHg 73%
08:00 +7°C° 0 mm 3 m/S 752 mmHg 66%
09:00 +8°C° 0 mm 3 m/S 753 mmHg 58%
10:00 +9°C° 0 mm 3 m/S 753 mmHg 54%
11:00 +10°C° 0 mm 3 m/S 753 mmHg 50%
12:00 +11°C° 0 mm 3 m/S 753 mmHg 45%
13:00 +11°C° 0 mm 3 m/S 752 mmHg 43%
14:00 +12°C° 0 mm 2 m/S 752 mmHg 41%
15:00 +12°C° 0 mm 2 m/S 752 mmHg 39%
16:00 +12°C° 0 mm 1 m/S 752 mmHg 43%
17:00 +11°C° 0 mm 1 m/S 752 mmHg 47%
18:00 +10°C° 0 mm 1 m/S 751 mmHg 51%
19:00 +9°C° 0 mm 1 m/S 751 mmHg 53%
20:00 +9°C° 0 mm 1 m/S 751 mmHg 54%
21:00 +7°C° 0 mm 2 m/S 751 mmHg 55%
22:00 +6°C° 0 mm 2 m/S 750 mmHg 58%
23:00 +5°C° 0 mm 3 m/S 750 mmHg 60%
Mehr zeigen

Wir brauchen deine Erlaubnis

Meteoprog und unser Service Anbieter werden persönliche Daten aufbewahren, so wie Cookies, Geräte Bezeichnung oder ähnliche Technologien von deinem Gerät und Prozess, so wie Persönliche Daten Inhalte und Werbungen, genauso wie social Media und den Verkehr zu analysieren.

  • Aufbewahrung und/oder Zugang zu deiner Geräte Informationen.

    Cookies, Geräte Bezeichnung oder andere Informationen, können aufbewahrt oder Zugang zu deinem Gerät erhalten, für den Grund, der oben angegeben wird.

  • Personalisierte Werbung und Inhalte, Messungen, Einblick in das Publikum und Produkt Entwicklung.

    Werbungen und Inhalte können personalisiert werden, basierend auf ein Profil. Mehr Daten können besser personalisierte Werbungen und Inhalte hinzufügen. Werbung und Inhalte können gezeigt und gemessen werden. Einblicke über das Publikum, welche die Werbung gesehen haben und den Inhalt, können abgeleitet werden. So wie Daten können genutzt werden, um es zu verbessern oder die Benutzer Erfahrung zu verbessern das System und die Software.

Wenn du “Ich stimme zu” klickst, erlaubst du uns, die Cookies zu benutzen die Geräte Bezeichnung, den Web oder ähnliche Technologien zu benutzen. Deine Settings, können in deinem Gerät bei deinem Browser geändert werden.

Für den bestimmten Zweck, berechtigten Interessen beruhen darauf, mehr als auf den Inhalt. Du kannst mehr darüber in unseren Privaten und Cookie Politik lesen.